Met observations

Date (UTC) Wind direction m/s kts. Vis. * Weather * Cloud * Temperature (°C) Dew point (°C) Air pressure (Hp)
28-06 08:59 5 10 VIS 10 km FEW 2000ft SCT 2500ft BKN 5000ft 10.4 5.0 1013.9
28-06 07:59 5 09 VIS 10 km FEW 2000ft SCT 2500ft BKN 5000ft 10.0 4.7 1013.8
28-06 06:59 4 08 VIS 10 km FEW 2000ft SCT 2500ft BKN 5000ft 9.5 4.7 1013.7
28-06 05:59 1 02 VIS 10 km FEW 2000ft SCT 2500ft BKN 5000ft 9.1 4.5 1013.5
28-06 04:59 1 02 VIS 10 km FEW 2000ft SCT 2500ft BKN 5000ft 8.2 4.9 1013.5
28-06 03:59 1 02 VIS 10 km FEW 2000ft SCT 2500ft BKN 5000ft 7.3 4.2 1013.4
28-06 02:59 1 01 VIS 10 km FEW 2000ft SCT 2500ft BKN 5000ft 6.9 4.4 1013.5
28-06 01:59 1 02 VIS 10 km FEW 2000ft SCT 2500ft BKN 5000ft 7.4 5.0 1013.6
27-06 22:59 0 00 VIS 10 km FEW 2000ft SCT 2500ft BKN 5000ft 7.5 5.2 1014.0
27-06 21:59 1 01 VIS 10 km FEW 2000ft SCT 2500ft BKN 5000ft 8.1 5.0 1013.9
27-06 20:59 0 00 VIS 10 km FEW 2000ft SCT 2500ft BKN 5000ft 8.3 4.6 1014.0
27-06 19:59 3 05 VIS 10 km FEW 2000ft SCT 2500ft BKN 5000ft 8.1 5.3 1014.0
27-06 18:59 3 06 VIS 10 km FEW 2000ft SCT 2500ft BKN 5000ft 9.0 4.9 1013.9
27-06 17:59 3 06 VIS 10 km FEW 2000ft BKN 5000ft 9.6 4.0 1013.8
27-06 16:59 3 06 VIS 10 km FEW 2000ft SCT 4000ft 10.5 3.6 1013.7
27-06 15:59 4 07 VIS 10 km SCT 3800ft 10.5 3.5 1013.9
27-06 14:59 4 07 VIS 10 km FEW 1800ft SCT 3800ft 10.9 2.9 1014.1
27-06 13:59 5 09 VIS 10 km FEW 1800ft SCT 3800ft 9.9 3.5 1014.4
27-06 12:59 4 07 VIS 10 km FEW 1600ft BKN 3200ft 8.7 3.7 1014.7
27-06 11:59 3 06 VIS 10 km FEW 1700ft BKN 3000ft 8.5 3.6 1015.0
27-06 10:59 4 08 VIS 10 km BKN 3200ft 8.8 3.1 1014.9

Met data is updated every half hour and is for information only.
* Visibility, weather and cloud values are updated during the airport’s service hours only.
Flight planning documentation is available on opmet.dmi.dk.
For meteorological abbreviations, click here